Weather History for Marshfield, MA

Change the Weather History Date:

Tuesday, July 16, 2013

  Actual Average (KPYM) Record (KPYM)
Temperature  
Mean Temperature 79 °F -  
Max Temperature 87 °F 82 °F 96 °F (1952)
Min Temperature 71 °F 61 °F 49 °F (1966)
Cooling Degree Days 14    
Growing Degree Days 29 (Base 50)    
Moisture  
Dew Point 68 °F    
Average Humidity 71    
Maximum Humidity 94    
Minimum Humidity 49    
Precipitation  
Precipitation 0.00 in - - ()
Sea Level Pressure  
Sea Level Pressure 30.14 in    
Wind  
Wind Speed 4 mph (NNW)    
Max Wind Speed 9 mph    
Max Gust Speed -    
Visibility 10 miles    
Events      
Averages and records for this station are not official NWS values.
T = Trace of Precipitation, MM = Missing Value Source: NWS Daily Summary

Daily Weather History Graph

Daily Weather History Graph

Search for Another Location

Airport:

Trip Planner

Search our weather history database for the weather conditions in past years. The results will help you decide how hot, cold, wet, or windy it might be!

Date:

Astronomy

Jul. 16, 2013 Rise Set
Actual Time 5:21 AM EDT 8:16 PM EDT
Civil Twilight 4:47 AM EDT 8:49 PM EDT
Nautical Twilight 4:05 AM EDT 9:31 PM EDT
Astronomical Twilight 3:16 AM EDT 10:20 PM EDT
Moon 1:51 PM EDT (7/16) No Moon Set
Length of Visible Light 16h 01m
Length of Day
14h 54m
First Quarter, 56% of the Moon is Illuminated
Jul 16
First Quarter
Jul 22
Full
Jul 29
Last Quarter
Aug 6
New
Aug 14
First Quarter

Hourly Weather History & Observations

Time (EDT) Temp. Heat Index Dew Point Humidity Pressure Visibility Wind Dir Wind Speed Gust Speed Precip Events Conditions
12:55 AM 75.2 °F - 73.4 °F 94% 30.12 in 10.0 mi West 3.5 mph - N/A   Clear
1:15 AM 75.2 °F - 73.4 °F 94% 30.12 in 10.0 mi West 4.6 mph - N/A   Clear
1:35 AM 75.2 °F - 73.4 °F 94% 30.12 in 10.0 mi WSW 4.6 mph - N/A   Clear
2:35 AM 73.4 °F - 71.6 °F 94% 30.11 in 10.0 mi Calm Calm - N/A   Clear
3:15 AM 73.4 °F - 71.6 °F 94% 30.11 in 10.0 mi WNW 3.5 mph - N/A   Clear
3:35 AM 75.2 °F - 69.8 °F 83% 30.11 in 10.0 mi NW 4.6 mph - N/A   Clear
3:55 AM 77.0 °F - 66.2 °F 69% 30.11 in 10.0 mi WNW 5.8 mph - N/A   Clear
4:15 AM 75.2 °F - 66.2 °F 73% 30.11 in 10.0 mi WNW 4.6 mph - N/A   Clear
4:35 AM 75.2 °F - 66.2 °F 73% 30.11 in 10.0 mi WNW 3.5 mph - N/A   Clear
4:55 AM 73.4 °F - 66.2 °F 78% 30.12 in 10.0 mi West 4.6 mph - N/A   Clear
5:15 AM 73.4 °F - 66.2 °F 78% 30.12 in 10.0 mi West 3.5 mph - N/A   Clear
5:35 AM 71.6 °F - 66.2 °F 83% 30.12 in 10.0 mi WSW 3.5 mph - N/A   Clear
5:55 AM 71.6 °F - 66.2 °F 83% 30.13 in 10.0 mi West 3.5 mph - N/A   Clear
6:15 AM 73.4 °F - 66.2 °F 78% 30.13 in 10.0 mi West 3.5 mph - N/A   Clear
6:35 AM 75.2 °F - 66.2 °F 73% 30.13 in 10.0 mi West 3.5 mph - N/A   Clear
6:55 AM 78.8 °F - 68.0 °F 69% 30.13 in 10.0 mi WNW 4.6 mph - N/A   Clear
7:15 AM 80.6 °F 82.7 °F 66.2 °F 61% 30.14 in 10.0 mi NW 3.5 mph - N/A   Clear
7:35 AM 80.6 °F 83.2 °F 68.0 °F 65% 30.14 in 10.0 mi NW 5.8 mph - N/A   Clear
7:55 AM 82.4 °F 85.4 °F 68.0 °F 62% 30.14 in 10.0 mi NW 4.6 mph - N/A   Clear
8:15 AM 82.4 °F 86.3 °F 69.8 °F 66% 30.14 in 10.0 mi NW 5.8 mph - N/A   Clear
8:35 AM 84.2 °F 88.4 °F 69.8 °F 62% 30.14 in 10.0 mi WNW 5.8 mph - N/A   Clear
8:55 AM 84.2 °F 87.3 °F 68.0 °F 58% 30.15 in 10.0 mi NNW 6.9 mph - N/A   Clear
9:15 AM 84.2 °F 86.6 °F 66.2 °F 55% 30.15 in 10.0 mi NNW 6.9 mph - N/A   Clear
9:35 AM 84.2 °F 86.6 °F 66.2 °F 55% 30.14 in 10.0 mi NNW 5.8 mph - N/A   Clear
9:55 AM 86.0 °F 88.2 °F 66.2 °F 51% 30.14 in 10.0 mi NW 6.9 mph - N/A   Clear
10:15 AM 86.0 °F 88.2 °F 66.2 °F 51% 30.14 in 10.0 mi North 6.9 mph - N/A   Clear
10:35 AM 87.8 °F 90.4 °F 66.2 °F 49% 30.14 in 10.0 mi NNW 5.8 mph - N/A   Clear
10:55 AM 87.8 °F 91.4 °F 68.0 °F 52% 30.14 in 10.0 mi NW 4.6 mph - N/A   Clear
11:15 AM 87.8 °F 90.4 °F 66.2 °F 49% 30.14 in 10.0 mi NNW 5.8 mph - N/A   Clear
11:55 AM 87.8 °F 90.4 °F 66.2 °F 49% 30.14 in 10.0 mi North 6.9 mph - N/A   Clear
12:15 PM 87.8 °F 90.4 °F 66.2 °F 49% 30.14 in 10.0 mi NNE 8.1 mph - N/A   Clear
12:35 PM 87.8 °F 92.6 °F 69.8 °F 55% 30.14 in 10.0 mi North 9.2 mph - N/A   Clear
12:55 PM 87.8 °F 92.6 °F 69.8 °F 55% 30.14 in 10.0 mi NNE 8.1 mph - N/A   Clear
1:15 PM 84.2 °F 87.3 °F 68.0 °F 58% 30.14 in 10.0 mi NNE 5.8 mph - N/A   Clear
1:35 PM 86.0 °F 89.4 °F 68.0 °F 55% 30.14 in 10.0 mi NNE 9.2 mph - N/A   Clear
1:55 PM 84.2 °F 87.3 °F 68.0 °F 58% 30.13 in 10.0 mi NE 9.2 mph - N/A   Clear
2:15 PM 84.2 °F 87.3 °F 68.0 °F 58% 30.13 in 10.0 mi NNE 9.2 mph - N/A   Clear
2:35 PM 84.2 °F 88.4 °F 69.8 °F 62% 30.13 in 10.0 mi NNE 8.1 mph - N/A   Clear
2:55 PM 84.2 °F 87.3 °F 68.0 °F 58% 30.14 in 10.0 mi NE 8.1 mph - N/A   Clear
3:15 PM 82.4 °F 85.4 °F 68.0 °F 62% 30.14 in 10.0 mi ENE 6.9 mph - N/A   Clear
3:35 PM 84.2 °F 86.6 °F 66.2 °F 55% 30.13 in 9.0 mi ENE 5.8 mph - N/A   Clear
4:55 PM 82.4 °F 85.4 °F 68.0 °F 62% 30.13 in 10.0 mi NE 6.9 mph - N/A   Clear
5:15 PM 82.4 °F 85.4 °F 68.0 °F 62% 30.14 in 10.0 mi NE 6.9 mph - N/A   Clear
5:35 PM 82.4 °F 85.4 °F 68.0 °F 62% 30.13 in 10.0 mi ENE 4.6 mph - N/A   Clear
5:55 PM 80.6 °F 83.2 °F 68.0 °F 65% 30.13 in 10.0 mi ESE 4.6 mph - N/A   Clear
6:15 PM 80.6 °F 83.2 °F 68.0 °F 65% 30.13 in 10.0 mi ESE 6.9 mph - N/A   Clear
6:35 PM 78.8 °F - 68.0 °F 69% 30.14 in 10.0 mi ESE 6.9 mph - N/A   Clear
6:55 PM 78.8 °F - 68.0 °F 69% 30.14 in 10.0 mi ESE 5.8 mph - N/A   Clear
7:15 PM 78.8 °F - 68.0 °F 69% 30.14 in 10.0 mi ESE 4.6 mph - N/A   Clear
7:35 PM 77.0 °F - 69.8 °F 78% 30.15 in 10.0 mi ESE 3.5 mph - N/A   Scattered Clouds
7:55 PM 75.2 °F - 69.8 °F 83% 30.15 in 10.0 mi Calm Calm - N/A   Scattered Clouds
8:15 PM 75.2 °F - 69.8 °F 83% 30.15 in 10.0 mi Calm Calm - N/A   Clear
8:35 PM 75.2 °F - 69.8 °F 83% 30.15 in 10.0 mi WSW 3.5 mph - N/A   Clear
8:55 PM 75.2 °F - 69.8 °F 83% 30.16 in 10.0 mi Calm Calm - N/A   Partly Cloudy
9:15 PM 73.4 °F - 69.8 °F 88% 30.17 in 10.0 mi Calm Calm - N/A   Clear
9:35 PM 73.4 °F - 69.8 °F 88% 30.17 in 10.0 mi Calm Calm - N/A   Partly Cloudy
9:55 PM 73.4 °F - 69.8 °F 88% 30.17 in 10.0 mi Calm Calm - N/A   Partly Cloudy
10:15 PM 73.4 °F - 69.8 °F 88% 30.17 in 10.0 mi Calm Calm - N/A   Clear
10:35 PM 71.6 °F - 69.8 °F 94% 30.17 in 10.0 mi Calm Calm - N/A   Clear
10:55 PM 71.6 °F - 69.8 °F 94% 30.18 in 10.0 mi West 3.5 mph - N/A   Partly Cloudy
11:15 PM 71.6 °F - 69.8 °F 94% 30.18 in 10.0 mi Calm Calm - N/A   Partly Cloudy
11:35 PM 71.6 °F - 69.8 °F 94% 30.18 in 10.0 mi Calm Calm - N/A   Clear
11:55 PM 71.6 °F - 69.8 °F 94% 30.17 in 10.0 mi Calm Calm - N/A   Clear